Regional Weather Roundup
Issued by NWS

Home | Current Version | Previous Version | Graphics & Text | Print | Product List | Glossary On
Versions: 1 2 3 4 5 6 7 8 9 10 11 12 13 14 15 16 17 18 19 20 21 22 23 24 25 26 27 28 29 30 31 32 33 34 35 36 37 38 39 40 41 42 43 44 45 46 47 48 49
000
ASUS43 KDMX 272207
RWRIA

WEATHER ROUNDUP FOR IOWA
NATIONAL WEATHER SERVICE DES MOINES IA
500 PM CDT SUN JUL 27 2014

NOTE: "FAIR" INDICATES FEW OR NO CLOUDS BELOW 12,000 FEET WITH NO
SIGNIFICANT WEATHER AND/OR OBSTRUCTIONS TO VISIBILITY.

* - THESE STATIONS ARE NOT NWS STATIONS...THUS NOT UNDER NWS
QUALITY CONTROL.  THEY ALSO DO NOT REPORT WEATHER SUCH
AS PRECIPITATION OR FOG.

IAZ001>003-012>014-020>022-031>034-043>046-272300-
   NORTHWEST IOWA

CITY           SKY/WX    TMP DP  RH WIND       PRES   REMARKS
CARROLL *      CLOUDY    72  57  60 N16G25    30.08R
CHEROKEE *     CLOUDY    72  59  64 N12G17    30.11S
DENISON *      PTSUNNY   73  57  56 N17G29    30.09R
LE MARS *      PTSUNNY   75  59  57 N15G23    30.12S
ORANGE CITY *  PTSUNNY   73  55  53 N16G23    30.13R
SHELDON *      PTSUNNY   70  57  64 N17G26    30.11S
SIOUX CITY     MOSUNNY   77  56  48 N16       30.11S
SPENCER        MOSUNNY   73  58  59 NW21G26   30.09F
STORM LAKE *   CLOUDY    72  59  64 N16G24    30.11S
$$

IAZ055>058-069>071-079>083-090>094-272300-
   SOUTHWEST IOWA

CITY           SKY/WX    TMP DP  RH WIND       PRES   REMARKS
ATLANTIC *     MOSUNNY   75  57  53 N20G28    30.07R
AUDUBON *      MOSUNNY   77  61  57 NW21      30.10R
CLARINDA *     MOSUNNY   81  59  47 NW21G30   30.08R HX  81
COUNCIL BLFS * MOSUNNY   77  59  53 NW15G25   30.09R
CRESTON *      MOSUNNY   77  59  53 NW22G29   30.06R
HARLAN  *      MOSUNNY   75  59  57 N17G25    30.12S
LAMONI         PTSUNNY   77  57  50 NW20G26   30.04R
RED OAK *      MOSUNNY   79  57  47 N16G25    30.08R HX  80
SHENANDOAH *   SUNNY     81  59  47 NW17      30.08S HX  81
$$

IAZ047>049-059>061-072>074-084-272300-
   CENTRAL IOWA

CITY           SKY/WX    TMP DP  RH WIND       PRES   REMARKS
AMES           SUNNY     74  58  57 NW13G29   30.03R
ANKENY *       PTSUNNY   75  57  53 NW18G29   30.02R
CHARITON *     PTSUNNY   77  59  53 NW17G24   30.02R
DES MOINES     PTSUNNY   78  57  48 NW22G31   30.01S
GRINNELL*      SUNNY     73  57  56 NW22G32   30.00R
KNOXVILLE *    MOSUNNY   77  57  50 NW23G32   29.99S
MARSHALLTOWN   PTSUNNY   73  59  61 NW24G33   29.99R
PELLA *        SUNNY     77  59  53 NW18G25   30.01R
PERRY *        CLOUDY    73  59  60 NW16G22   30.06R
$$

IAZ004>006-015-016-023>025-035-036-272300-
   NORTH CENTRAL IOWA

CITY           SKY/WX    TMP DP  RH WIND       PRES   REMARKS
ALGONA *       PTSUNNY   72  59  64 NW18G30   30.05S
CLARION *      PTSUNNY   72  59  64 NW21G29   30.03R
ESTHERVILLE    PTSUNNY   71  57  61 NW23G32   30.07R
FORT DODGE *   MOSUNNY   72  57  60 NW13G24   30.06S
MASON CITY     PTSUNNY   74  60  61 NW20G28   30.01R
FOREST CITY *  CLOUDY    72  59  64 NE17G25   30.01S
IOWA FALLS *   CLOUDY    72  59  64 NW21G28   30.02R
$$

IAZ007>011-017>019-026>030-037>042-050>054-066-272300-
   NORTHEAST IOWA

CITY           SKY/WX    TMP DP  RH WIND       PRES   REMARKS
CEDAR RAPIDS   PTSUNNY   74  59  59 NW22G29   29.93R
CHARLES CITY * PTSUNNY   73  59  60 NW21G31   29.97S
CLINTON *      PTSUNNY   75  59  57 NW21G29   29.90R
DECORAH *      MOSUNNY   73  59  60 N16G25    29.91S
DUBUQUE        PTSUNNY   72  58  61 NW17G33   29.89R
MONTICELLO *   LGT RAIN  72  59  64 NW21G33   29.90R
OELWEIN *      PTSUNNY   70  61  73 NW14G28   29.95R
WATERLOO       PTSUNNY   76  60  57 NW14G29   29.94S
$$

IAZ064-065-067-068-078-272300-
   EAST CENTRAL IOWA

CITY           SKY/WX    TMP DP  RH WIND       PRES   REMARKS
DAVENPORT      PTSUNNY   74  58  57 NW20G29   29.90R
IOWA CITY      PTSUNNY   74  59  59 NW23G32   29.94R
MT. PLEASANT * MOSUNNY   77  54  44 NW14G28   29.94S
MUSCATINE *    PTSUNNY   77  59  53 NW20G29   29.92R
QUAD CITIES    MOSUNNY   77  57  50 NW24G35   29.88R
$$

IAZ062-063-075>077-085>089-095>099-272300-
   SOUTHEAST IOWA

CITY           SKY/WX    TMP DP  RH WIND       PRES   REMARKS
BURLINGTON     PTSUNNY   76  59  55 NW12G26   29.92S
FAIRFIELD *    MOSUNNY   75  59  57 NW18G25   29.96R
FORT MADISON * MOSUNNY   79  57  47 NW18G26   29.95S HX  80
KEOKUK *       MOSUNNY   77  59  53 NW14G28   29.94S
OSKALOOSA *      N/A     75  61  60 NW20G26   29.99R
CENTERVILLE *  SUNNY     75  59  57 NW13G21   30.02R
OTTUMWA        MOSUNNY   76  59  55 NW18G31   29.98S
WASHINGTON *   MOSUNNY   75  59  57 NW24G35   29.95R
$$

ABBREVIATIONS USED IN REMARKS
   TC - TEMPERATURES IN CELSIUS
  WCI - WIND CHILL INDEX
   HX - HEAT INDEX
  VSB - VISIBILITY
$$



USA.gov is the U.S. government's official web portal to all federal, state and local government web resources and services.